SB KEPS @ AMSAT $ORB11111.N 2Line Orbital Elements 11111.AMSAT
HR AMSAT ORBITAL ELEMENTS FOR AMATEUR SATELLITES IN NASA FORMAT FROM WA5QGD FORT WORTH,TX April 21, 2011 Send Subscribe/unsubscribe to KEPS at http://www.amsat.org/mailman/listinfo/keps BID: ORB11111.N
DECODE 2-LINE ELSETS WITH THE FOLLOWING KEY: 1 AAAAAU 00 0 0 BBBBB.BBBBBBBB .CCCCCCCC 00000-0 00000-0 0 DDDZ 2 AAAAA EEE.EEEE FFF.FFFF GGGGGGG HHH.HHHH III.IIII JJ.JJJJJJJJKKKKKZ KEY: A-CATALOGNUM B-EPOCHTIME C-DECAY D-ELSETNUM E-INCLINATION F-RAAN G-ECCENTRICITY H-ARGPERIGEE I-MNANOM J-MNMOTION K-ORBITNUM Z-CHECKSUM
TO ALL RADIO AMATEURS BT
AO-07 1 07530U 74089B 11111.65345798 -.00000027 00000-0 10000-3 0 596 2 07530 101.3933 120.4251 0012047 031.0721 329.1061 12.53582118667108 FO-29 1 24278U 96046B 11111.85318537 .00000010 00000-0 44715-4 0 5557 2 24278 098.5380 263.5937 0351251 043.3432 319.4781 13.52959964724840 SO-33 1 25509U 98061B 11111.55479851 .00000280 00000-0 44950-4 0 9495 2 25509 031.4312 204.6151 0353177 106.3788 257.5959 14.28387204652177 RS-22 1 27939U 03042A 11111.82045709 .00000332 00000-0 72477-4 0 1877 2 27939 097.8537 328.4943 0013817 159.1980 200.9791 14.63559240404091 VO-52 1 28650U 05017B 11110.57177283 .00001080 00000-0 14166-3 0 07749 2 28650 097.6471 156.2653 0026794 353.1577 006.9276 14.82010910322210 SO-67 1 35870U 09049F 11111.76019581 .00001907 00000-0 90130-4 0 7630 2 35870 097.2864 156.9885 0001673 175.6264 277.7028 15.20571927 88368 HO-68 1 36122U 09072B 11111.68880745 -.00000045 00000-0 00000 0 0 3053 2 36122 100.4212 173.3434 0007403 357.0616 003.0449 13.16285399 64808 UO-11 1 14781U 84021B 11110.73791940 .00000590 00000-0 85142-4 0 05321 2 14781 098.0118 167.6137 0008611 331.4440 028.6298 14.79943364457298 AO-16 1 20439U 90005D 11110.86300373 .00000100 00000-0 52867-4 0 01755 2 20439 098.3789 062.4127 0010895 338.9558 021.1173 14.31911995109413 LO-19 1 20442U 90005G 11110.88162530 .00000092 00000-0 49586-4 0 00924 2 20442 098.3420 067.0059 0011683 331.7670 028.2874 14.32138490109593 AO-27 1 22825U 93061C 11111.44870784 .00000227 00000-0 10614-3 0 7988 2 22825 098.5278 057.0861 0009394 084.1109 276.1129 14.29341020916083 IO-26 1 22826U 93061D 11110.96860966 .00000088 00000-0 51350-4 0 05566 2 22826 098.5218 057.1091 0009885 077.7126 282.5163 14.29601542916139 GO-32 1 25397U 98043D 11111.52834509 -.00000006 00000-0 15125-4 0 4609 2 25397 098.3240 107.1285 0002239 081.1327 279.0110 14.23204307663906 NO-44 1 26931U 01043C 11110.53591776 -.00000063 00000-0 76684-5 0 07338 2 26931 067.0500 132.0777 0007268 265.9047 094.1213 14.29649900498683 SO-50 1 27607U 02058C 11110.57928485 .00000556 00000-0 10775-3 0 04465 2 27607 064.5579 142.7244 0066667 334.1984 025.5815 14.71704472447612 CO-55 1 27844U 03031E 11111.55740853 .00000201 00000-0 11317-3 0 927 2 27844 098.7073 121.0805 0010163 007.0696 353.0627 14.20795725404878 CO-57 1 27848U 03031J 11110.57642309 .00000148 00000-0 88937-4 0 00416 2 27848 098.7140 119.2842 0010273 014.4704 345.6753 14.20576606404682 AO-51 1 28375U 04025K 11110.60721679 .00000203 00000-0 73923-4 0 9496 2 28375 098.0934 092.0959 0082789 244.9960 114.2596 14.40748426357779 CP3 1 31129U 07012N 11111.72927652 .00000503 00000-0 12596-3 0 8499 2 31129 097.9023 139.1945 0101451 357.0282 003.0225 14.52446444212644 CO-65 1 32785U 08021C 11110.62004088 .00001176 00000-0 15478-3 0 09700 2 32785 097.8523 175.6019 0015156 008.3069 351.8407 14.81937659161014 KKS-1 1 33493U 09002B 11111.70260425 .00001935 00000-0 25284-3 0 5082 2 33493 098.1167 239.5208 0019123 221.4526 138.5237 14.81557531121152 SOHLA-1 1 33496U 09002E 11111.81109633 .00000343 00000-0 65923-4 0 3906 2 33496 098.0746 222.2301 0005733 309.6447 050.4245 14.69595997120203 TISAT-1 1 36799U 10035E 11111.70392539 .00001219 00000-0 16616-3 0 7833 2 36799 098.1059 179.3857 0016597 099.3015 261.0075 14.80466898 41957 STUDSAT 1 36801U 10035G 11110.76653639 .00003485 00000-0 46273-3 0 01791 2 36801 098.1086 178.2857 0014882 090.6809 269.6107 14.80386418041802 RAX 1 37223U 0 11089.46431449 .00000660 00000-0 10054-3 0 01224 2 37223 071.9716 212.4675 0019443 068.5267 291.7923 14.77296529019265 OOREOS 1 37224U 10062C 11076.42207246 .00000868 00000-0 13086-3 0 01095 2 37224 071.9712 241.3960 0017800 096.5373 263.7815 14.76929834017329 FAST1 1 37227U 0 11111.42067481 .00000280 00000-0 48009-4 0 00084 2 37227 071.9707 164.4317 0016208 022.0538 338.1278 14.76558372000940 NANOSALD 1 37361U 0 11110.36481897 .00097261 00000-0 98280-2 0 01514 2 37361 071.9680 165.1694 0030956 307.9349 051.8894 14.90115572013489 FAST2 1 37380U 0 11111.42537182 .00000245 00000-0 43249-4 0 01447 2 37380 071.9743 164.4598 0016851 018.8949 341.2790 14.76325854022488 NOAA-10 1 16969U 86073A 11110.94278094 .00000022 00000-0 26583-4 0 04810 2 16969 098.6228 141.4947 0012964 035.6592 324.5453 14.27455228279486 NOAA-11 1 19531U 88089A 11110.77972528 .00000187 00000-0 11944-3 0 04772 2 19531 098.7514 199.3283 0011366 356.5299 003.5788 14.14912850164632 NOAA-12 1 21263U 91032A 11110.95997748 .00000115 00000-0 67124-4 0 09824 2 21263 098.7542 128.8998 0012548 357.8717 002.2410 14.25703040036255 MET-3/5 1 21655U 91056A 11111.53730679 .00000051 00000-0 10000-3 0 918 2 21655 082.5527 090.7978 0012431 302.9916 057.0042 13.17026083946267 MET-2/21 1 22782U 93055A 11110.76761730 -.00000006 00000-0 -18549-4 0 00769 2 22782 082.5516 008.4365 0020898 260.0835 099.7964 13.83658121890613 OKEAN-4 1 23317U 94066A 11110.94996146 .00000656 00000-0 77535-4 0 05728 2 23317 082.5386 066.5784 0020868 311.7593 048.1834 14.83024700892061 NOAA-14 1 23455U 94089A 11110.92439483 .00000020 00000-0 33865-4 0 04698 2 23455 098.8524 194.1257 0010320 082.1391 278.0952 14.13814507840982 NOAA-15 1 25338U 98030A 11111.07664369 .00000143 00000-0 80013-4 0 7865 2 25338 098.6509 098.0132 0009708 259.1389 100.8699 14.24903124672596 RESURS 1 25394U 98043A 11110.92110017 .00000028 00000-0 29824-4 0 07911 2 25394 098.2997 117.0988 0002412 050.9427 309.1967 14.24230258664157 FENGYUN1 1 25730U 99025A 11110.92007331 .00000631 00000-0 39120-3 0 3061 2 25730 098.8158 073.3828 0024480 108.6986 251.6824 14.08594402615002 OKEAN-0 1 25860U 99039A 11110.92718843 .00000323 00000-0 56877-4 0 03031 2 25860 097.8785 078.9674 0001320 100.6408 259.4949 14.73759079632222 NOAA-16 1 26536U 00055A 11110.56324060 .00000269 00000-0 17014-3 0 02673 2 26536 099.1442 139.9218 0010567 190.2588 169.8380 14.12611064545227 NOAA-17 1 27453U 02032A 11110.71056806 .00000281 00000-0 13982-3 0 02625 2 27453 098.3849 153.0437 0011101 321.5880 038.4495 14.24261563458473 NOAA-18 1 28654U 05018A 11110.75222943 .00000119 00000-0 90605-4 0 07428 2 28654 098.9915 061.7737 0013520 267.7004 092.2606 14.11463091304828 NOAA-19 1 33591U 09005A 11111.72946520 .00000341 00000-0 18896-3 0 9347 2 33591 098.8234 052.8427 0014610 133.2113 227.0768 14.11156389113423 HUBBLE 1 20580U 90037B 11109.15405170 .00001367 00000-0 91050-4 0 7498 2 20580 028.4696 042.0585 0003663 211.8262 148.2086 15.01292820950773 ISS 1 25544U 98067A 11112.04999834 .00030536 00000-0 21498-3 0 2304 2 25544 051.6447 089.0426 0003168 126.4628 348.0957 15.73827119712061 CO-58 1 28895U 05043F 11110.70605244 .00000462 00000-0 10535-3 0 8534 2 28895 097.9739 349.2920 0018577 044.5747 315.6960 14.60068709291852 FALCON 1 30776U 07006E 11110.90916346 .00003054 00000-0 21691-3 0 00768 2 30776 035.4345 335.2119 0002475 312.4836 047.5664 15.04444410226412 MAST 1 31126U 07012K 11111.66474208 .00000395 00000-0 99304-4 0 1397 2 31126 097.9012 142.0736 0094586 347.4626 012.4222 14.53723452212879 CAPE1 1 31130U 07012P 11110.63367311 .00000285 00000-0 75850-4 0 1561 2 31130 097.9032 137.9555 0103341 000.9166 359.2211 14.52354781212287 COMPASS 1 32787U 08021E 11110.63329417 .00001434 00000-0 18567-3 0 09674 2 32787 097.8527 175.5119 0015906 008.2195 351.9266 14.82315308161030 AAUSAT2 1 32788U 08021F 11111.68401492 .00001808 00000-0 23138-3 0 9568 2 32788 097.8516 176.7478 0015358 005.2640 354.8801 14.82496219161200 DO-64 1 32789U 08021G 11110.69824258 .00002447 00000-0 30791-3 0 09730 2 32789 097.8613 176.6794 0015311 007.2480 352.8924 14.82888456161068 CO-66 1 32791U 08021J 11111.65100447 .00000821 00000-0 10988-3 0 9580 2 32791 097.8526 176.4683 0016280 003.8582 356.2762 14.82026676161134 RS-30 1 32953U 08025A 11111.72478821 .00000010 00000-0 00000 0 0 6594 2 32953 082.5037 197.8178 0019878 147.0076 213.2252 12.43011998132076 TACSAT-3 1 35001U 09028A 11110.58464180 .00018641 00000-0 35881-3 0 5701 2 35001 040.4525 162.1405 0021450 141.1860 219.0502 15.47148613108157 PHARMSAT 1 35002U 09028B 11110.54138145 .00016316 00000-0 31541-3 0 5297 2 35002 040.4700 159.9326 0023876 147.7962 212.4319 15.47031453108176 HAWKSAT1 1 35003U 09028C 11110.49944008 .00058897 00000-0 73734-3 0 5891 2 35003 040.4546 138.9755 0021592 172.0230 188.0941 15.58574021108400 CP6 1 35004U 09028D 11111.29478027 .00077048 00000-0 82190-3 0 5945 2 35004 040.4534 128.0970 0022670 185.2426 174.8300 15.62598171108586 METEOR-M 1 35865U 09049A 11111.71353852 .00000176 00000-0 10000-3 0 3002 2 35865 098.7119 167.5593 0002007 174.8127 185.3026 14.21837014 82566 RS-38 1 35869U 09049E 11111.72046957 .00000177 00000-0 10000-3 0 3058 2 35869 098.7089 167.6044 0004202 184.5055 175.6063 14.22007428 82578 /EX
participants (1)
-
Ray Hoad